Вернуться в каталог

STARLINK-35938

АктивенСвязьVLEO
NORAD 66644·PAYLOAD·🇺🇸 United States

Запущен Nov 23, 2025 с Vandenberg Space Force Base

Loading…

Ближайшие Пролёты (ближайшие 24 часа)

TLE

СвежийSource: CelesTrak SupGP

Эпоха: Sep 14, 2026, 22:33 UTC

1 66644C 25271AD  26257.94006944 -.00001407  00000+0 -41557-4 0  2577
2 66644  53.1583 339.7767 0001133  87.8829  47.1218 15.34389307    12

Отслеживайте STARLINK-35938 в реальном времени с AllMySat

Download on the App Store